1499284800.08,45035,17.63,74290.8,4.89,-6.19,-6.51,0,*73
1499284801.3,45036,17.63,74292.0,4.89,-6.77,-6.19,0,*74
1499284802.53,45037,17.63,74288.8,4.91,-6.97,-5.43,0,*7E
1499284803.76,45038,17.63,74294.3,4.89,-7.39,-4.69,0,*74
1499284804.97,45039,17.63,74292.8,4.89,-7.31,-3.91,0,*7D
1499284806.19,45040,17.63,74290.8,4.93,-7.15,-3.23,0,*77
1499284807.43,45041,17.63,74296.5,4.91,-6.73,-2.63,0,*70
1499284808.66,45042,17.63,74298.5,4.89,-6.27,-2.07,0,*79
1499284809.9,45043,17.63,74298.8,4.91,-5.93,-1.59,0,*75
1499284811.11,45044,17.63,74290.5,4.89,-5.47,-1.35,0,*78
1499284812.34,45045,17.63,74284.5,4.91,-4.85,-1.17,0,*7F
1499284813.52,45046,17.63,74286.5,4.89,-4.41,-1.29,0,*70
1499284814.79,45047,17.63,74288.5,4.91,-3.71,-1.35,0,*71
1499284815.97,45048,17.63,74284.8,4.89,-3.15,-1.63,0,*76
1499284817.16,45049,17.63,74288.0,4.89,-2.87,-1.75,0,*7A
1499284818.4,45050,17.63,74282.0,4.91,-2.71,-2.15,0,*77
1499284819.58,45051,17.63,74280.5,4.89,-2.91,-2.35,0,*73
1499284820.79,45052,17.63,74268.3,4.89,-2.99,-2.63,0,*7B
1499284822.02,45053,17.63,74264.0,4.91,-3.23,-2.59,0,*7A
1499284823.26,45054,17.63,74272.0,4.89,-3.55,-2.47,0,*7A
1499284824.48,45055,17.63,74268.5,4.91,-3.75,-2.23,0,*72
1499284825.67,45056,17.63,74272.3,4.89,-4.13,-2.15,0,*7A
1499284826.86,45057,17.63,74274.8,4.89,-4.29,-2.15,0,*72
1499284828.05,45058,17.63,74280.3,4.89,-4.45,-1.95,0,*7C
1499284829.26,45059,17.63,74280.3,4.89,-4.53,-1.83,0,*7D
1499284830.44,45060,17.63,74288.8,4.89,-4.41,-1.63,0,*7A
1499284831.63,45061,17.63,74286.3,4.89,-4.29,-1.29,0,*7B
1499284832.83,45062,17.63,74292.8,4.89,-4.25,-0.89,0,*4F
1499284834.01,45063,17.63,74292.8,4.89,-4.17,-0.45,0,*4F
1499284835.2,45064,17.63,74288.5,4.89,-4.05,-0.15,0,*4E
1499284836.38,45065,17.63,74296.3,4.89,-3.87,0.09,0,*52
1499284837.61,45066,17.63,74276.5,4.91,-3.75,0.25,0,*6B
1499284838.83,45067,17.63,74272.0,4.89,-3.47,0.25,0,*62
1499284840.06,45068,17.63,74270.8,4.91,-3.23,0.37,0,*65
1499284841.26,45069,17.63,74268.3,4.91,-3.11,0.43,0,*66
1499284842.46,45070,17.63,74264.8,4.89,-3.03,0.47,0,*60
1499284843.69,45071,17.63,74270.8,4.91,-2.95,0.55,0,*65
1499284844.92,45072,17.63,74286.8,4.91,-2.87,0.79,0,*6B
1499284846.15,45073,17.63,74290.3,4.89,-2.75,1.09,0,*58
1499284847.37,45074,17.63,74288.8,4.91,-2.59,1.41,0,*54
1499284848.57,45075,17.63,74284.5,4.91,-2.31,1.83,0,*55
1499284849.8,45076,17.63,74284.3,4.89,-1.95,2.09,0,*53
1499284851.0,45077,17.63,74290.8,4.89,-1.47,2.27,0,*51
1499284852.23,45078,17.63,74290.5,4.89,-1.01,2.39,0,*53
1499284853.46,45079,17.63,74288.5,4.91,-0.73,2.47,0,*66
1499284854.69,45080,17.63,74288.3,4.91,-0.41,2.59,0,*6E
1499284855.87,45081,17.63,74286.3,4.89,-0.15,2.65,0,*68
1499284857.08,45082,17.63,74286.3,4.91,0.05,2.69,0,*72
1499284858.33,45083,17.63,74282.0,4.91,0.51,2.59,0,*41
1499284859.57,45084,17.63,74284.8,4.91,0.75,2.47,0,*4F
1499284860.81,45085,17.63,74282.3,4.91,0.79,2.25,0,*46
1499284862.04,45086,17.63,74280.3,4.91,1.01,2.13,0,*7E
1499284863.27,45087,17.63,74270.8,4.93,1.01,1.71,0,*7A
1499284864.5,45088,17.63,74266.8,4.93,1.13,1.41,0,*75
1499284865.76,45089,17.63,74264.8,4.93,1.17,1.25,0,*72
1499284866.99,45090,17.63,74268.8,4.93,1.09,0.97,0,*4D
1499284868.25,45091,17.63,74272.8,4.93,0.91,0.63,0,*77
1499284869.5,45092,17.63,74280.8,4.93,0.79,0.51,0,*73
1499284870.74,45093,17.63,74280.3,4.93,0.67,0.29,0,*72
1499284871.93,45094,17.63,74284.3,4.93,0.43,0.05,0,*4D
1499284873.13,45095,17.63,74284.8,4.93,0.05,-0.07,0,*51
1499284874.32,45096,17.63,74286.3,4.95,-0.19,-0.19,0,*7B
1499284875.53,45097,17.63,74292.5,4.93,-0.49,-0.49,0,*7C
1499284876.74,45098,17.63,74298.8,4.93,-0.81,-0.73,0,*7E
1499284878.01,45099,17.63,74292.8,4.93,-1.05,-0.97,0,*48
1499284879.28,45100,17.63,74306.3,4.93,-1.47,-1.35,0,*76
1499284880.5,45101,17.63,74306.8,4.95,-1.87,-1.55,0,*7B
1499284881.69,45102,17.63,74308.0,4.95,-2.39,-1.67,0,*7F
1499284882.94,45103,17.63,74302.0,4.93,-3.07,-1.83,0,*7E
1499284884.19,45104,17.63,74300.0,4.93,-3.71,-1.71,0,*75
1499284885.38,45105,17.63,74292.3,4.95,-4.13,-1.67,0,*76
1499284886.6,45106,17.63,74302.0,4.93,-4.49,-1.33,0,*7D
1499284887.78,45107,17.63,74300.0,4.95,-4.45,-0.69,0,*48
1499284889.0,45108,17.63,74304.5,4.93,-4.25,-0.11,0,*48
1499284890.24,45109,17.63,74300.5,4.93,-3.75,0.37,0,*62
1499284891.48,45110,17.63,74296.5,4.93,-3.19,0.55,0,*64
1499284892.74,45111,17.63,74286.0,4.93,-2.55,0.79,0,*62
1499284893.96,45112,17.63,74288.3,4.93,-1.59,0.63,0,*65
1499284895.21,45113,17.63,74282.8,4.93,-0.93,0.37,0,*52
1499284896.45,45114,17.63,74280.3,4.93,-0.23,-0.19,0,*7F
1499284897.67,45115,17.63,74286.0,4.93,0.13,-0.57,0,*5A
1499284898.93,45116,17.63,74282.0,4.93,0.55,-1.09,0,*61
1499284900.16,45117,17.63,74282.5,4.93,0.75,-1.79,0,*65
1499284901.4,45118,17.56,74278.5,4.93,0.87,-2.35,0,*6C
1499284902.64,45119,17.63,74274.8,4.93,0.91,-2.83,0,*67
1499284903.84,45120,17.63,74274.8,4.95,0.83,-3.19,0,*6A
1499284905.08,45121,17.63,74282.8,4.93,0.55,-3.75,0,*6C
1499284906.31,45122,17.63,74278.3,4.93,0.25,-4.21,0,*6E
1499284907.5,45123,17.56,74274.8,4.95,-0.19,-4.61,0,*4F
1499284908.69,45124,17.63,74264.0,4.95,-0.65,-4.99,0,*44
1499284909.91,45125,17.63,74266.0,4.95,-1.01,-5.39,0,*7D
1499284911.13,45126,17.63,74262.8,4.95,-1.39,-5.97,0,*71
1499284912.35,45127,17.63,74252.8,4.95,-2.03,-6.39,0,*7D
1499284913.56,45128,17.63,74246.3,4.95,-2.75,-6.69,0,*76
1499284914.83,45129,17.63,74246.3,4.93,-3.43,-6.93,0,*70
1499284916.04,45130,17.63,74254.0,4.95,-3.83,-7.11,0,*79
1499284917.28,45131,17.56,74258.0,4.93,-4.37,-7.39,0,*7C
1499284918.54,45132,17.63,74260.0,4.93,-4.85,-7.65,0,*7F
1499284919.79,45133,17.63,74256.3,4.95,-5.23,-7.99,0,*76
1499284921.01,45134,17.63,74264.5,4.93,-5.55,-8.45,0,*78
1499284922.25,45135,17.63,74270.5,4.93,-6.23,-8.75,0,*78
1499284923.47,45136,17.63,74272.5,4.93,-6.73,-9.27,0,*78
1499284924.66,45137,17.63,74280.5,4.95,-7.19,-9.89,0,*76
1499284925.92,45138,17.63,74270.8,4.93,-7.61,-10.49,0,*44
1499284927.19,45139,17.63,74266.3,4.93,-8.07,-11.37,0,*42
1499284928.45,45140,17.63,74272.3,4.93,-8.55,-11.89,0,*4E
1499284929.68,45141,17.63,74270.8,4.93,-9.27,-12.47,0,*4A
1499284930.94,45142,17.63,74262.8,4.93,-9.83,-12.83,0,*4F
1499284932.18,45143,17.63,74268.8,4.93,-10.35,-13.11,0,*71
1499284933.43,45144,17.63,74274.0,4.93,-10.75,-13.11,0,*72
1499284934.67,45145,17.63,74280.0,4.91,-11.15,-13.01,0,*77
1499284935.92,45146,17.63,74276.0,4.91,-11.51,-12.97,0,*7A
1499284937.17,45147,17.63,74280.5,4.91,-11.89,-12.97,0,*7E
1499284938.41,45148,17.63,74272.3,4.91,-12.43,-12.83,0,*71
1499284939.66,45149,17.63,74274.8,4.91,-12.97,-12.61,0,*75
1499284940.88,45150,17.63,74276.0,4.89,-13.33,-12.21,0,*7F
1499284942.16,45151,17.63,74278.3,4.91,-13.83,-11.77,0,*7C
1499284943.41,45152,17.63,74278.8,4.91,-14.01,-10.93,0,*79
1499284944.66,45153,17.63,74274.5,4.91,-14.43,-10.09,0,*7D
1499284945.91,45154,17.63,74264.8,4.91,-14.55,-9.05,0,*49
1499284947.15,45155,17.63,74272.3,4.91,-14.61,-7.91,0,*4C
1499284948.37,45156,17.63,74272.0,4.91,-14.19,-6.59,0,*45
1499284949.57,45157,17.63,74274.3,4.89,-13.73,-5.51,0,*4D
1499284950.81,45158,17.63,74270.3,4.91,-12.83,-4.33,0,*40
1499284952.04,45159,17.63,74274.0,4.91,-12.03,-3.59,0,*42
1499284953.22,45160,17.63,74278.8,4.89,-11.19,-3.23,0,*44
1499284954.44,45161,17.63,74276.8,4.91,-10.35,-2.83,0,*48
1499284955.71,45162,17.63,74278.0,4.93,-9.57,-2.47,0,*7D
1499284956.92,45163,17.63,74282.8,4.91,-9.23,-2.23,0,*7F
1499284958.16,45164,17.63,74280.8,4.91,-8.59,-2.07,0,*72
1499284959.38,45165,17.63,74282.3,4.89,-8.07,-1.75,0,*77
1499284960.61,45166,17.63,74282.8,4.91,-7.35,-1.25,0,*76
1499284961.81,45167,17.63,74286.5,4.91,-6.47,-0.61,0,*42
1499284963.06,45168,17.63,74286.8,4.91,-5.69,0.17,0,*6E
1499284964.31,45169,17.63,74278.8,4.91,-5.03,0.87,0,*6A
1499284965.54,45170,17.63,74286.0,4.91,-4.33,1.47,0,*5D
1499284966.78,45171,17.63,74278.0,4.93,-3.63,1.83,0,*54
1499284968.03,45172,17.63,74278.3,4.93,-3.19,2.13,0,*50
1499284969.26,45173,17.63,74282.3,4.91,-2.79,2.43,0,*51
1499284970.47,45174,17.63,74282.8,4.93,-2.23,2.65,0,*5F
1499284971.74,45175,17.63,74280.5,4.93,-1.91,2.81,0,*5E
1499284973.0,45176,17.63,74284.5,4.93,-1.35,2.85,0,*57
1499284974.26,45177,17.63,74286.8,4.93,-0.85,3.03,0,*63
1499284975.5,45178,17.63,74284.5,4.93,-0.41,3.15,0,*63
1499284976.69,45179,17.63,74286.0,4.93,0.01,3.29,0,*74
1499284977.92,45180,17.63,74284.0,4.93,0.41,3.29,0,*46
1499284979.15,45181,17.63,74284.8,4.93,0.87,3.25,0,*41
1499284980.41,45182,17.63,74286.8,4.93,1.17,3.37,0,*79
1499284981.64,45183,17.63,74282.5,4.93,1.41,3.37,0,*7B
1499284982.88,45184,17.63,74282.0,4.95,1.43,3.45,0,*7D
1499284984.14,45185,17.63,74280.8,4.93,1.47,3.45,0,*7E
1499284985.37,45186,17.63,74276.8,4.95,1.63,3.49,0,*71
1499284986.58,45187,17.63,74276.8,4.95,1.79,3.49,0,*7B
1499284987.85,45188,17.63,74274.8,4.93,1.85,3.49,0,*71
1499284989.08,45189,17.63,74278.3,4.95,2.05,3.45,0,*71
1499284990.34,45190,17.63,74278.5,4.93,2.13,3.37,0,*7D
1499284991.55,45191,17.63,74274.0,4.95,2.35,3.41,0,*7F
1499284992.81,45192,17.63,74276.5,4.97,2.47,3.33,0,*7E
1499284994.01,45193,17.63,74280.0,4.95,2.55,3.29,0,*75
1499284995.22,45194,17.63,74276.8,4.95,2.73,3.29,0,*76
1499284996.44,45195,17.63,74276.5,4.95,2.77,3.23,0,*79
1499284997.69,45196,17.63,74276.8,4.97,2.85,3.11,0,*74
1499284998.94,45197,17.63,74278.8,4.97,2.89,2.89,0,*79
1499285000.17,45198,17.63,74272.5,4.97,2.95,2.77,0,*7A
1499285001.4,45199,17.63,74278.3,4.97,2.95,2.51,0,*7F
1499285002.65,45200,17.63,74276.3,4.97,2.89,2.39,0,*7F
1499285003.9,45201,17.63,74278.0,4.97,2.85,2.05,0,*7D
1499285005.12,45202,17.63,74278.3,4.97,2.73,1.79,0,*7F
1499285006.34,45203,17.63,74274.8,4.97,2.61,1.51,0,*77
1499285007.58,45204,17.63,74278.8,4.95,2.51,1.29,0,*7E
1499285008.75,45205,17.63,74280.3,4.95,2.35,1.01,0,*77
1499285010.0,45206,17.63,74282.5,4.97,2.25,0.79,0,*49
1499285011.23,45207,17.63,74282.0,4.99,1.97,0.37,0,*46
1499285012.43,45208,17.63,74282.5,4.99,1.71,0.09,0,*7C
1499285013.66,45209,17.63,74278.3,4.99,1.43,-0.23,0,*69
1499285014.86,45210,17.63,74276.3,4.97,1.05,-0.65,0,*6F
1499285016.09,45211,17.63,74274.3,4.97,0.79,-0.81,0,*5E
1499285017.33,45212,17.63,74274.0,4.97,0.71,-0.97,0,*52
1499285018.52,45213,17.63,74278.0,4.99,0.43,-0.97,0,*5C
1499285019.74,45214,17.63,74278.3,4.97,0.09,-1.05,0,*51
1499285020.96,45215,17.63,74278.0,4.97,-0.19,-1.21,0,*4A
1499285022.17,45216,17.63,74280.0,4.97,-0.65,-1.21,0,*42
1499285023.41,45217,17.63,74282.5,4.97,-1.01,-1.21,0,*70
1499285024.65,45218,17.63,74276.5,4.97,-1.13,-1.21,0,*7C
1499285025.87,45219,17.63,74276.8,4.97,-1.29,-1.29,0,*7C
1499285027.11,45220,17.63,74278.0,4.97,-1.39,-1.55,0,*7C
1499285028.32,45221,17.63,74276.8,4.97,-1.51,-1.59,0,*7F
1499285029.56,45222,17.63,74274.8,4.97,-1.67,-1.99,0,*75
1499285030.77,45223,17.63,74272.3,4.97,-1.63,-2.31,0,*71
1499285031.98,45224,17.56,74276.0,4.97,-1.55,-2.83,0,*7A
1499285033.21,45225,17.63,74282.8,4.97,-1.55,-3.51,0,*75
1499285034.42,45226,17.56,74278.5,4.97,-1.67,-4.09,0,*7D
1499285035.66,45227,17.63,74280.8,4.97,-1.75,-4.85,0,*7B
1499285036.9,45228,17.63,74278.8,4.97,-2.15,-5.85,0,*70
1499285038.14,45229,17.56,74280.8,4.97,-2.51,-6.89,0,*7E
1499285039.33,45230,17.63,74290.5,4.95,-2.83,-7.87,0,*74
1499285040.55,45231,17.63,74288.0,4.95,-3.43,-9.05,0,*7C
1499285041.75,45232,17.63,74286.0,4.99,-3.87,-10.09,0,*4F
1499285042.97,45233,17.63,74284.3,4.97,-4.49,-11.23,0,*4C
1499285044.21,45234,17.56,74272.0,4.97,-5.23,-12.39,0,*4E
1499285045.46,45235,17.63,74274.3,4.95,-5.89,-13.29,0,*4D
1499285046.66,45236,17.56,74282.0,4.95,-6.55,-14.11,0,*40
1499285047.92,45237,17.56,74290.3,4.93,-7.39,-14.93,0,*46
1499285049.18,45238,17.56,74286.8,4.95,-8.11,-15.57,0,*43
1499285050.44,45239,17.56,74286.8,4.93,-9.01,-16.17,0,*43
1499285051.64,45240,17.63,74276.3,4.95,-9.67,-16.41,0,*48
1499285052.87,45241,17.56,74290.5,4.93,-10.49,-16.79,0,*70
1499285054.1,45242,17.63,74288.0,4.93,-11.15,-16.97,0,*7B
1499285055.38,45243,17.56,74288.5,4.93,-11.73,-17.07,0,*72
1499285056.64,45244,17.56,74294.5,4.93,-12.21,-17.11,0,*76
1499285057.92,45245,17.63,74288.8,4.93,-12.75,-17.25,0,*71
1499285059.18,45246,17.63,74294.5,4.93,-13.55,-17.25,0,*71
1499285060.47,45247,17.56,74290.8,4.93,-14.05,-17.07,0,*72
1499285061.71,45248,17.56,74286.8,4.91,-14.69,-16.65,0,*70
1499285062.94,45249,17.56,74278.8,4.93,-15.15,-16.37,0,*7E
1499285064.22,45250,17.56,74274.3,4.93,-15.57,-16.09,0,*7D
1499285065.45,45251,17.63,74272.3,4.91,-15.75,-15.71,0,*72
1499285066.71,45252,17.56,74286.0,4.91,-15.85,-15.29,0,*73
1499285067.93,45253,17.56,74286.5,4.91,-16.03,-15.15,0,*70
1499285069.22,45254,17.63,74280.5,4.93,-16.09,-14.83,0,*71
1499285070.5,45255,17.56,74274.3,4.93,-16.09,-14.43,0,*7C
1499285071.75,45256,17.56,74276.8,4.91,-16.09,-14.15,0,*7E
1499285072.97,45257,17.63,74282.5,4.89,-16.09,-13.73,0,*71
1499285074.2,45258,17.56,74278.5,4.91,-15.95,-13.19,0,*7D
1499285075.43,45259,17.56,74266.3,4.91,-16.03,-12.21,0,*7A
1499285076.65,45260,17.56,74268.0,4.89,-15.95,-11.07,0,*72
1499285077.92,45261,17.56,74276.8,4.91,-15.85,-9.83,0,*4E
1499285079.11,45262,17.56,74268.5,4.89,-15.53,-8.25,0,*42
1499285080.35,45263,17.56,74272.3,4.91,-14.75,-6.35,0,*40
1499285081.6,45264,17.56,74268.5,4.91,-13.83,-4.61,0,*4A
1499285082.85,45265,17.56,74274.5,4.93,-12.15,-2.79,0,*48
1499285084.08,45266,17.56,74270.8,4.93,-10.35,-1.67,0,*47
1499285085.29,45267,17.56,74262.5,4.91,-8.41,-0.77,0,*4E
1499285086.47,45268,17.56,74264.8,4.89,-6.77,0.09,0,*57
1499285087.72,45269,17.56,74272.8,4.91,-5.23,0.67,0,*65
1499285088.95,45270,17.56,74262.0,4.91,-3.87,1.09,0,*5C
1499285090.2,45271,17.56,74256.0,4.91,-2.67,1.47,0,*58
1499285091.4,45272,17.56,74258.3,4.91,-1.79,1.75,0,*56
1499285092.66,45273,17.63,74260.8,4.91,-1.05,2.09,0,*54
1499285093.88,45274,17.56,74262.8,4.91,-0.45,2.09,0,*66
1499285095.13,45275,17.56,74262.3,4.93,0.13,2.13,0,*40
1499285096.38,45276,17.56,74264.8,4.93,0.51,2.01,0,*46
1499285097.6,45277,17.56,74260.3,4.95,0.79,1.89,0,*48
1499285098.79,45278,17.56,74270.8,4.95,1.01,1.75,0,*7A
1499285100.05,45279,17.56,74272.3,4.93,1.13,1.59,0,*70
1499285101.31,45280,17.56,74274.0,4.93,1.17,1.51,0,*7A
1499285102.54,45281,17.56,74268.3,4.95,1.21,1.43,0,*7B
1499285103.78,45282,17.56,74276.0,4.93,1.13,1.41,0,*7D
1499285105.02,45283,17.56,74262.3,4.95,1.17,1.33,0,*7B
1499285106.25,45284,17.56,74268.0,4.95,1.17,1.33,0,*7C
1499285107.46,45285,17.56,74262.0,4.95,1.05,1.29,0,*75
1499285108.65,45286,17.56,74266.5,4.95,0.95,1.41,0,*40
1499285109.85,45287,17.56,74274.5,4.95,0.83,1.41,0,*46
1499285111.06,45288,17.56,74274.3,4.97,0.71,1.41,0,*46
1499285112.26,45289,17.56,74270.8,4.97,0.67,1.41,0,*40
1499285113.48,45290,17.56,74270.5,4.99,0.71,1.43,0,*43
1499285114.7,45291,17.56,74266.5,4.99,0.75,1.43,0,*46
1499285115.91,45292,17.56,74264.3,4.97,0.91,1.41,0,*43
1499285117.14,45293,17.56,74270.8,4.97,1.05,1.29,0,*70
1499285118.38,45294,17.56,74264.0,4.95,1.13,1.13,0,*7B
1499285119.61,45295,17.56,74268.5,4.95,1.13,0.95,0,*45
1499285120.81,45296,17.56,74266.5,4.95,1.01,0.67,0,*48
1499285122.06,45297,17.56,74264.8,4.97,0.95,0.55,0,*76
1499285123.27,45298,17.56,74264.0,4.97,0.83,0.09,0,*47
1499285124.5,45299,17.56,74264.3,4.97,0.71,-0.15,0,*5B
1499285125.71,45300,17.56,74268.0,4.99,0.47,-0.41,0,*50
1499285126.9,45301,17.56,74264.0,4.97,0.05,-0.69,0,*63
1499285128.11,45302,17.56,74266.5,4.95,-0.41,-0.93,0,*7A
1499285129.34,45303,17.56,74268.5,4.95,-0.93,-0.89,0,*7F
1499285130.57,45304,17.56,74268.5,4.97,-1.43,-0.69,0,*48
1499285131.83,45305,17.56,74266.5,4.97,-1.91,-0.27,0,*4C
1499285133.06,45306,17.56,74266.8,4.97,-2.15,0.21,0,*6B
1499285134.28,45307,17.56,74270.3,4.97,-2.39,0.79,0,*69
1499285135.51,45308,17.56,74272.3,4.97,-2.43,1.33,0,*54
1499285136.74,45309,17.56,74274.0,4.97,-2.27,2.01,0,*55
1499285138.0,45310,17.56,74272.3,4.97,-1.99,2.47,0,*59
1499285139.23,45311,17.56,74278.8,4.97,-1.63,2.77,0,*5E
1499285140.47,45312,17.56,74278.3,4.97,-1.21,2.89,0,*5A
1499285141.67,45313,17.56,74278.0,4.97,-0.81,2.99,0,*61
1499285142.9,45314,17.56,74278.3,4.97,-0.37,3.11,0,*6A
1499285144.11,45315,17.56,74272.0,4.97,0.09,3.19,0,*73
1499285145.33,45316,17.56,74276.8,4.99,0.51,3.23,0,*4A
1499285146.59,45317,17.56,74274.5,4.97,0.91,3.11,0,*48
1499285147.8,45318,17.56,74274.3,4.99,1.33,2.99,0,*71
1499285149.03,45319,17.56,74264.0,4.97,1.63,2.99,0,*7B
1499285150.27,45320,17.56,74256.8,4.99,1.97,2.89,0,*75
1499285151.47,45321,17.56,74254.5,4.99,2.27,2.73,0,*79
1499285152.69,45322,17.56,74256.5,4.99,2.51,2.61,0,*78
1499285153.9,45323,17.56,74270.0,4.99,2.65,2.39,0,*73
1499285155.15,45324,17.56,74256.8,4.97,2.69,2.13,0,*7E
1499285156.37,45325,17.56,74250.8,4.99,2.81,1.89,0,*77
1499285157.6,45326,17.56,74258.3,4.99,2.81,1.59,0,*79
1499285158.85,45327,17.56,74260.8,4.97,2.85,1.21,0,*7D
1499285160.09,45328,17.56,74260.3,4.97,2.85,0.95,0,*4C
1499285161.33,45329,17.56,74250.8,4.97,2.73,0.55,0,*48
1499285162.53,45330,17.56,74252.8,4.99,2.61,0.25,0,*4A
1499285163.71,45331,17.56,74252.3,4.99,2.31,0.01,0,*78
1499285164.92,45332,17.56,74248.5,4.99,2.05,-0.33,0,*60
1499285166.12,45333,17.56,74256.5,4.99,1.67,-0.53,0,*60
1499285167.34,45334,17.56,74252.0,4.99,1.21,-0.65,0,*60
1499285168.54,45335,17.56,74258.0,4.99,0.87,-0.53,0,*59
1499285169.74,45336,17.56,74254.0,4.99,0.63,-0.15,0,*52
1499285170.96,45337,17.56,74262.3,4.99,0.51,0.33,0,*7B
1499285172.19,45338,17.56,74264.0,5.01,0.63,0.79,0,*7B
1499285173.41,45339,17.56,74264.5,4.99,0.63,1.33,0,*45
1499285174.66,45340,17.56,74272.0,5.01,0.75,1.85,0,*41
1499285175.86,45341,17.56,74268.0,5.01,1.01,2.35,0,*7A
1499285177.12,45342,17.56,74266.0,5.01,1.29,2.77,0,*75
1499285178.37,45343,17.56,74268.3,5.01,1.63,2.85,0,*77
1499285179.62,45344,17.56,74270.3,5.01,2.01,2.85,0,*77
1499285180.87,45345,17.56,74270.5,5.01,2.21,2.81,0,*70
1499285182.12,45346,17.56,74268.8,5.01,2.55,2.69,0,*76
1499285183.37,45347,17.56,74272.0,5.01,2.59,2.47,0,*77
1499285184.62,45348,17.56,74266.5,5.01,2.77,2.13,0,*75
1499285185.85,45349,17.56,74260.8,5.01,2.85,1.75,0,*7A
1499285187.07,45350,17.56,74262.5,5.03,2.85,1.21,0,*71
1499285188.32,45351,17.56,74264.3,5.01,2.77,0.55,0,*4D
1499285189.54,45352,17.56,74260.8,5.01,2.77,0.01,0,*7F
1499285190.77,45353,17.56,74260.8,5.01,2.55,-0.73,0,*66
1499285192.0,45354,17.56,74260.3,5.01,2.21,-1.67,0,*56
1499285193.23,45355,17.56,74264.5,5.01,1.75,-2.55,0,*57
1499285194.44,45356,17.56,74268.3,5.03,0.97,-3.47,0,*69
1499285195.66,45357,17.56,74270.8,5.01,0.17,-4.21,0,*65
1499285196.89,45358,17.56,74278.0,5.01,-0.57,-4.77,0,*40
1499285198.14,45359,17.56,74280.3,5.01,-1.33,-5.27,0,*76
1499285199.37,45360,17.56,74280.0,4.99,-1.99,-5.55,0,*79
1499285200.61,45361,17.56,74286.3,5.01,-2.71,-5.51,0,*79
1499285201.83,45362,17.56,74286.0,5.01,-3.07,-5.55,0,*7E
1499285203.08,45363,17.56,74292.5,5.01,-3.59,-5.55,0,*74
1499285204.3,45364,17.56,74294.3,5.01,-4.09,-5.55,0,*71
1499285205.51,45365,17.56,74286.3,5.01,-4.37,-5.55,0,*7D
1499285206.73,45366,17.56,74286.5,5.01,-4.65,-5.51,0,*7D
1499285208.0,45367,17.56,74286.8,5.01,-5.03,-5.65,0,*7A
1499285209.24,45368,17.56,74288.3,4.99,-5.31,-5.81,0,*7E
1499285210.46,45369,17.56,74292.3,4.99,-5.61,-6.05,0,*75
1499285211.7,45370,17.56,74290.3,5.01,-5.89,-6.55,0,*7E
1499285212.91,45371,17.56,74286.3,4.99,-6.23,-7.19,0,*75
1499285214.13,45372,17.56,74276.8,4.99,-6.85,-7.99,0,*72
1499285215.34,45373,17.56,74280.3,4.99,-7.69,-8.63,0,*7A
1499285216.54,45374,17.56,74284.8,4.99,-8.55,-8.85,0,*75
1499285217.77,45375,17.56,74288.0,4.97,-9.49,-8.55,0,*7B
1499285219.01,45376,17.56,74288.3,4.97,-10.01,-7.91,0,*4B
1499285220.23,45377,17.56,74290.0,4.99,-10.35,-6.93,0,*40
1499285221.46,45378,17.56,74266.8,4.99,-10.57,-6.19,0,*49
1499285222.69,45379,17.56,74270.0,4.99,-10.57,-5.19,0,*4B
1499285223.87,45380,17.56,74278.5,4.99,-10.53,-4.17,0,*46
1499285225.07,45381,17.56,74274.5,4.99,-10.53,-3.27,0,*43
1499285226.32,45382,17.56,74276.0,4.97,-10.41,-2.31,0,*4B
1499285227.56,45383,17.56,74284.8,4.97,-10.01,-1.39,0,*45
1499285228.79,45384,17.56,74278.0,4.97,-9.61,-0.29,0,*4C
1499285230.02,45385,17.56,74272.3,4.99,-8.81,0.51,0,*6E
1499285231.28,45386,17.56,74276.5,4.97,-8.11,1.17,0,*59
1499285232.49,45387,17.56,74272.3,4.97,-7.23,1.75,0,*52
1499285233.74,45388,17.56,74270.3,4.97,-6.27,2.13,0,*5B
1499285234.97,45389,17.56,74272.8,4.97,-5.35,2.47,0,*5B
1499285236.2,45390,17.56,74274.0,4.97,-4.41,2.69,0,*5D
1499285237.43,45391,17.56,74280.5,4.97,-3.39,2.85,0,*56
1499285238.66,45392,17.56,74268.8,4.97,-2.39,3.07,0,*5F
1499285239.89,45393,17.56,74272.3,4.97,-1.55,3.23,0,*51
1499285241.12,45394,17.56,74272.5,4.97,-0.77,3.33,0,*66
1499285242.32,45395,17.56,74272.3,4.99,0.09,3.49,0,*70
1499285243.51,45396,17.56,74274.8,4.99,0.75,3.59,0,*49
1499285244.75,45397,17.56,74272.3,4.97,1.29,3.55,0,*72
1499285245.95,45398,17.56,74272.5,4.97,1.79,3.59,0,*74
1499285247.17,45399,17.56,74276.3,4.99,2.21,3.71,0,*7F
1499285248.35,45400,17.56,74278.5,4.99,2.61,3.63,0,*7F
1499285249.6,45401,17.56,74278.3,4.97,2.89,3.67,0,*72
1499285250.84,45402,17.56,74278.0,4.99,3.15,3.75,0,*78
1499285252.07,45403,17.56,74274.5,4.99,3.45,3.75,0,*7C
1499285253.28,45404,17.56,74274.8,4.99,3.53,3.81,0,*77
1499285254.5,45405,17.56,74272.0,4.97,3.55,3.71,0,*71
1499285255.71,45406,17.56,74272.5,4.99,3.59,3.75,0,*74
1499285256.91,45407,17.56,74274.5,4.99,3.63,3.75,0,*7C
1499285258.13,45408,17.56,74274.5,4.99,3.71,3.81,0,*7B
1499285259.33,45409,17.56,74272.8,4.99,3.75,3.85,0,*7A
1499285260.54,45410,17.56,74270.8,4.99,3.75,3.85,0,*72
1499285261.79,45411,17.56,74272.8,5.01,3.79,3.97,0,*7C
1499285263.02,45412,17.56,74274.3,5.01,3.79,3.85,0,*7C
1499285264.25,45413,17.56,74272.8,5.01,3.79,3.89,0,*71
1499285265.45,45414,17.56,74272.8,5.01,3.85,3.89,0,*75
1499285266.66,45415,17.56,74274.5,5.01,3.89,3.89,0,*78
1499285267.87,45416,17.56,74272.3,5.03,3.79,3.89,0,*76
1499285269.1,45417,17.56,74282.8,5.03,3.97,3.97,0,*78
1499285270.32,45418,17.56,74284.3,5.01,3.89,3.97,0,*7A
1499285271.55,45419,17.56,74282.8,5.01,3.89,3.97,0,*7B
1499285272.76,45420,17.56,74284.3,5.01,3.89,3.89,0,*7E
1499285273.95,45421,17.56,74288.5,5.03,3.89,3.89,0,*7D
1499285275.15,45422,17.56,74284.0,5.03,3.97,3.89,0,*71
1499285276.37,45423,17.56,74286.8,5.03,3.97,3.97,0,*7F
1499285277.62,45424,17.56,74274.0,5.01,3.97,3.97,0,*7A
1499285278.82,45425,17.56,74264.3,5.07,3.93,4.01,0,*71
1499285280.05,45426,17.56,74266.8,5.03,3.97,4.01,0,*72
1499285281.25,45427,17.56,74262.3,5.03,3.89,3.97,0,*74
1499285282.46,45428,17.56,74264.3,5.03,3.97,3.89,0,*7B
1499285283.68,45429,17.56,74262.5,5.03,3.97,3.97,0,*75
1499285284.9,45430,17.56,74258.5,5.07,4.01,4.01,0,*79
1499285286.09,45431,17.56,74264.0,5.07,3.93,3.93,0,*78
1499285287.27,45432,17.56,74262.0,5.07,3.93,3.89,0,*70
1499285288.45,45433,17.56,74262.0,5.03,3.89,3.85,0,*72
1499285289.71,45434,17.56,74256.3,5.01,3.79,3.75,0,*77
1499285290.94,45435,17.56,74274.0,5.03,3.75,3.75,0,*78
1499285292.18,45436,17.56,74278.0,5.03,3.75,3.75,0,*7B
1499285293.38,45437,17.56,74274.5,5.03,3.85,3.75,0,*75
1499285294.58,45438,17.56,74282.0,5.03,3.85,3.79,0,*76
1499285295.82,45439,17.56,74280.3,5.03,3.75,3.67,0,*77
1499285297.05,45440,17.56,74278.0,5.03,3.67,3.67,0,*7A
1499285298.24,45441,17.56,74274.0,5.03,3.55,3.67,0,*7A
1499285299.47,45442,17.56,74276.0,5.03,3.37,3.67,0,*7D
1499285300.67,45443,17.56,74278.5,5.07,3.11,3.59,0,*71
1499285301.88,45444,17.56,74274.3,5.07,3.07,3.55,0,*7D
1499285303.11,45445,17.56,74264.8,5.03,3.15,3.53,0,*7D
1499285304.34,45446,17.56,74260.5,5.07,3.11,3.53,0,*7E
1499285305.58,45447,17.56,74262.3,5.03,3.03,3.41,0,*7B
1499285306.78,45448,17.56,74254.3,5.03,3.03,3.25,0,*76
1499285308.02,45449,17.56,74234.8,5.07,3.07,3.11,0,*70
1499285309.19,45450,17.56,74274.3,5.07,2.95,2.99,0,*73
1499285310.4,45451,17.56,74268.3,5.07,2.95,2.89,0,*73
1499285311.63,45452,17.56,74264.8,5.07,2.73,2.51,0,*7D
1499285312.85,45453,17.56,74276.3,5.07,2.73,2.47,0,*7B
1499285314.05,45454,17.56,74284.3,5.07,2.81,2.27,0,*77
1499285315.26,45455,17.56,74276.5,5.07,2.61,2.17,0,*7B
1499285316.46,45456,17.56,74268.5,5.07,2.39,1.75,0,*72
1499285317.69,45457,17.5,74260.3,5.03,2.25,1.37,0,*7C
1499285318.89,45458,17.56,74266.3,5.03,2.09,1.01,0,*78
1499285320.11,45459,17.56,74274.3,5.03,1.71,0.67,0,*44
1499285321.33,45460,17.56,74272.5,5.03,1.47,0.37,0,*4E
1499285322.53,45461,17.56,74280.5,5.03,1.09,0.01,0,*70